Regional Weather Roundup
Issued by NWS Newport/Morehead, NC

Current Version | Previous Version | Graphics & Text | Print | Product List | Glossary Off
Versions: 1 2 3 4 5 6 7 8 9 10 11 12 13 14 15 16 17 18 19 20 21 22 23 24 25 26 27 28 29 30 31 32 33 34 35 36 37 38 39 40 41 42 43 44 45 46 47 48 49 50
000 ASUS42 KMHX 170625 RWRMHX WEATHER ROUNDUP FOR EASTERN NORTH CAROLINA NATIONAL WEATHER SERVICE NEWPORT/MOREHEAD CITY NC 200 AM EDT TUE OCT 17 2017 NOTE: "FAIR" INDICATES FEW OR NO CLOUDS BELOW 12,000 FEET WITH NO SIGNIFICANT WEATHER AND/OR OBSTRUCTIONS TO VISIBILITY NCZ015>017-031-032-045>047-102-103-170700- NORTH COAST CITY SKY/WX TMP DP RH WIND PRES REMARKS EDENTON CLEAR 52 47 82 CALM 30.20S ELIZABETH CITY CLEAR 57 49 74 N12 30.19R KITTY HAWK PTCLDY 61 42 49 NE13G25 30.15R MANTEO CLEAR N/A N/A N/A NE20G35 30.16S $$ NCZ045>047-081-094-103-104-170700- CENTRAL COAST CITY SKY/WX TMP DP RH WIND PRES REMARKS FRISCO CLOUDY 64 49 57 NE15G30 30.13S $$ NCZ095-097-098-100-101-170700- SOUTHERN COAST CITY SKY/WX TMP DP RH WIND PRES REMARKS BEAUFORT CLOUDY 61 49 64 N15G24 30.14F CEDAR ISLAND NOT AVBL JACKSONVILLE PTCLDY 55 47 74 N10 30.17R PINEY ISLAND N/A N/A N/A N/A N24G30 30.15S WILMINGTON CLOUDY 57 46 66 N12 30.17R $$ NCZ011>013-027>030-043-044-078>080-089-090>093-098-170700- COASTAL PLAIN CITY SKY/WX TMP DP RH WIND PRES REMARKS AHOSKIE CLEAR 46 42 84 N3 30.23R CLINTON CLEAR 52 49 89 N5 30.21S ELIZABETHTOWN NOT AVBL GOLDSBORO CLEAR 52 46 82 N7 30.20R GREENVILLE CLEAR 46 45 93 N3 30.22R HAVELOCK PTCLDY 59 48 67 N16 30.17R KENANSVILLE CLEAR 50 46 87 N7 30.20S KINSTON CLEAR 49 46 88 N6 30.21S NEW BERN CLEAR 55 48 77 N10 30.19S RICHLANDS PTCLDY 53 46 77 N7 30.19S ROCKY MOUNT CLEAR 50 45 83 N9 30.23R WASHINGTON CLEAR 49 44 82 N6 30.20S WHITEVILLE CLEAR 55 50 84 NE3 30.19R $$ AMZ130-135-150-152-154-156-158-170-250-252-270-ANZ085-086-088-633-658-670-170700- MARINE OBSERVATIONS STATION/POSITION TIME TEMP WIND PRES WAVE SWELL AIR SEA DIR/SP/G HT/PER HT/PER (UTC) (F) (DEG/KT/KT) (MB) (FT/S) (FT/S) CHESAPEAKE LIGHT NOT AVBL 64 E VA BEACH 0550 62 69 20/ 25/ 31 1020.7 9/ 7 2/11 DUCK 0600 63 70 10/ 28/ 32 1020.7 2 E DUCK 0600 72 N/A 8/ 7 2/11 OREGON INLET 0600 62 71 10/ 17/ 29 1020.5 13E OREGON INLT 0548 72 N/A 10/ 8 3/11 HATTERAS CG 0600 64 73 30/ 20/ 30 1020.0 DIAMOND BUOY 0550 66 81 20/ 27/ 31 1018.7 8/ 7 2/12 CAPE LOOKOUT 0600 62 20/ 19/ 24 1020.0 BEAUFORT LAB 0600 62 74 10/ 14/ 21 1021.0 30 SE NEW RVR IN 0608 66 30/ 25/ 35 1019.1 30 SE NEW RVR IN NOT AVBL 27 SE WRIGHTSVLE 0608 66 78 60/ 23/ 33 1019.2 5 SE WRIGHTSVLE 0508 65 76 40/ 17/ 33 1020.9 225 S CAPE HAT 0550 78 80 240/ 4/ 6 1013.8 4/10 5/10 41 SE CHARLESTON 0610 70 81 20/ 27/ 35 1018.4 $$

USA.gov is the U.S. government's official web portal to all federal, state and local government web resources and services.